EW2785 Weather Reports


Display with metric or nautical units.
time (UTC)temp
F
wind
direction
speed
MPH
gust
MPH
rain 1hr
in
rain 24hr
in
rain mn
in
humidity
%
barometer
mb
20260905124544 60 5 1.0 6.0 0.00 0.00 0.00 93 1011.0
20260905123043 60 355 0.0 2.0 0.00 0.00 0.00 93 1011.1
20260905121542 59 294 0.0 1.0 0.00 0.00 0.00 93 1010.9
20260905120042 59 294 0.0 0.0 0.00 0.00 0.00 93 1010.8
20260905114540 58 324 0.0 1.0 0.00 0.00 0.00 93 1010.8
20260905113038 58 324 0.0 0.0 0.00 0.00 0.00 93 1010.8
20260905111600 58 324 0.0 0.0 0.00 0.00 0.00 93 1010.6
20260905110036 58 324 0.0 0.0 0.00 0.00 0.00 93 1010.4
20260905104536 57 324 0.0 0.0 0.00 0.00 0.00 93 1010.3
20260905103035 57 324 0.0 0.0 0.00 0.00 0.00 93 1010.3
20260905101535 57 324 0.0 0.0 0.00 0.00 0.00 93 1010.3
20260905100034 57 324 0.0 0.0 0.00 0.00 0.00 92 1010.2
20260905094533 56 324 0.0 0.0 0.00 0.00 0.00 92 1010.2
20260905093036 56 324 0.0 0.0 0.00 0.00 0.00 92 1010.0
20260905091532 56 324 0.0 0.0 0.00 0.00 0.00 91 1010.0
20260905090031 56 324 0.0 0.0 0.00 0.00 0.00 91 1009.9
20260905084531 56 324 0.0 0.0 0.00 0.00 0.00 91 1009.9
20260905083028 56 324 0.0 0.0 0.00 0.00 0.00 91 1009.9
20260905081527 57 324 0.0 0.0 0.00 0.00 0.00 91 1010.0
20260905080026 57 324 0.0 0.0 0.00 0.00 0.00 90 1010.0
20260905074525 57 324 0.0 0.0 0.00 0.00 0.00 90 1009.8
20260905073025 58 324 0.0 0.0 0.00 0.00 0.00 90 1009.7
20260905071536 58 324 0.0 0.0 0.00 0.00 0.00 90 1009.8
20260905070018 59 324 0.0 0.0 0.00 0.00 0.00 90 1010.0
20260905064517 59 324 0.0 0.0 0.00 0.00 0.00 89 1010.1
20260905063014 60 324 0.0 0.0 0.00 0.00 0.00 88 1010.1
20260905061512 60 324 0.0 0.0 0.00 0.00 0.00 88 1010.3
20260905060011 60 324 0.0 0.0 0.00 0.00 0.00 88 1010.4
20260905054527 61 324 0.0 0.0 0.00 0.00 0.00 88 1010.2
20260905053007 61 324 0.0 0.0 0.00 0.00 0.00 88 1010.3
20260905051506 62 324 0.0 0.0 0.00 0.00 0.00 87 1010.2
20260905050005 62 324 0.0 0.0 0.00 0.00 0.00 87 1010.3
20260905044502 62 324 0.0 0.0 0.00 0.00 0.00 86 1010.3
20260905043100 63 324 0.0 0.0 0.00 0.00 0.00 86 1010.5
20260905041556 63 324 0.0 0.0 0.00 0.00 0.00 85 1010.6
20260905040055 64 324 0.0 0.0 0.00 0.00 0.00 83 1010.5
20260905034555 64 324 0.0 0.0 0.00 0.00 0.00 82 1010.5
20260905033101 65 324 0.0 0.0 0.00 0.00 0.00 82 1010.4
20260905031554 65 324 0.0 0.0 0.00 0.00 0.00 82 1010.1
20260905030053 66 324 0.0 0.0 0.00 0.00 0.00 81 1010.4
20260905024604 66 324 0.0 0.0 0.00 0.00 0.00 80 1010.4
20260905023058 66 324 0.0 2.0 0.00 0.00 0.00 80 1010.4
20260905021552 66 325 0.0 1.0 0.00 0.00 0.00 79 1010.6
20260905020104 66 324 0.0 0.0 0.00 0.00 0.00 79 1010.7
20260905014553 67 324 0.0 2.0 0.00 0.00 0.00 79 1010.6
20260905013051 67 324 0.0 0.0 0.00 0.00 0.00 79 1010.7
20260905011551 67 324 0.0 0.0 0.00 0.00 0.00 79 1010.7
20260905010049 68 324 0.0 1.0 0.00 0.00 0.00 78 1010.5
20260905004550 68 325 0.0 1.0 0.00 0.00 0.00 79 1010.6
20260905003049 68 327 0.0 1.0 0.00 0.00 0.00 78 1010.5
20260905001548 69 327 0.0 3.0 0.00 0.00 0.00 78 1010.6
20260905000048 69 13 2.0 5.0 0.00 0.00 0.00 77 1010.4
20260904234547 70 342 0.0 3.0 0.00 0.00 0.00 76 1010.0
20260904233051 70 333 0.0 0.0 0.00 0.00 0.00 76 1010.0
20260904231546 71 333 0.0 0.0 0.00 0.00 0.00 74 1009.8
20260904230046 71 333 0.0 1.0 0.00 0.00 0.00 73 1009.9
20260904224600 72 333 0.0 2.0 0.00 0.00 0.00 72 1009.8
20260904223048 72 327 0.0 1.0 0.00 0.00 0.00 73 1009.7
20260904221548 73 295 0.0 1.0 0.00 0.00 0.00 73 1009.7
20260904220044 73 295 0.0 1.0 0.00 0.00 0.00 73 1009.7
20260904214546 73 294 0.0 1.0 0.00 0.00 0.00 72 1009.7
20260904213042 73 294 0.0 1.0 0.00 0.00 0.00 70 1009.7
20260904211541 73 294 0.0 1.0 0.00 0.00 0.00 69 1009.8
20260904210049 74 319 0.0 3.0 0.00 0.00 0.00 68 1009.9
20260904204539 74 249 0.0 5.0 0.00 0.00 0.00 68 1009.9
20260904203039 74 346 0.0 4.0 0.00 0.00 0.00 66 1009.9
20260904201550 75 298 1.0 6.0 0.00 0.00 0.00 64 1010.0
20260904200038 75 326 0.0 3.0 0.00 0.00 0.00 65 1009.9
20260904194544 75 258 0.0 3.0 0.00 0.00 0.00 66 1009.9
20260904193036 74 11 1.0 5.0 0.00 0.00 0.00 67 1009.9
20260904191537 74 283 1.0 6.0 0.00 0.00 0.00 64 1010.0
20260904190034 74 232 1.0 6.0 0.00 0.00 0.00 65 1010.1
20260904184534 74 344 1.0 6.0 0.00 0.00 0.00 64 1010.4
20260904183033 74 309 3.0 8.0 0.00 0.00 0.00 64 1010.4
20260904181533 74 304 0.0 8.0 0.00 0.00 0.00 65 1010.2
20260904180034 74 28 2.0 8.0 0.00 0.00 0.00 65 1010.3
20260904174532 74 293 1.0 5.0 0.00 0.00 0.00 64 1010.3
20260904173030 74 69 1.0 8.0 0.00 0.00 0.00 65 1010.3
20260904171534 74 154 1.0 6.0 0.00 0.00 0.00 64 1010.2
20260904170027 74 348 1.0 8.0 0.00 0.00 0.00 66 1010.2
20260904164525 73 335 1.0 7.0 0.00 0.00 0.00 67 1010.5
20260904163030 73 218 1.0 9.0 0.00 0.00 0.00 69 1010.5
20260904161522 72 253 0.0 5.0 0.00 0.00 0.00 70 1010.6
20260904160021 72 294 1.0 9.0 0.00 0.00 0.00 71 1010.9
20260904154520 72 315 2.0 9.0 0.00 0.00 0.00 69 1011.1
20260904153021 71 337 3.0 10.0 0.00 0.00 0.00 71 1011.1
20260904151516 71 317 0.0 4.0 0.00 0.00 0.00 72 1011.0
20260904150025 70 5 0.0 6.0 0.00 0.00 0.00 75 1011.2
20260904144510 69 294 1.0 8.0 0.00 0.00 0.00 78 1011.1
20260904143006 68 28 2.0 5.0 0.00 0.00 0.00 85 1011.1
20260904141503 66 24 2.0 5.0 0.00 0.00 0.00 91 1011.1
20260904140100 65 5 2.0 4.0 0.00 0.00 0.00 93 1011.1
20260904134559 64 208 1.0 2.0 0.00 0.00 0.00 93 1011.1
20260904133053 63 209 0.0 1.0 0.00 0.00 0.00 94 1011.1
20260904131553 62 209 1.0 2.0 0.00 0.00 0.00 94 1011.1
20260904130050 62 207 0.0 1.0 0.00 0.00 0.00 94 1011.1